Temp
-7 -7 -8 -7 -7 -8 -7 -5 -6 -4 -6 -6 -5 -6 -6 -7 -7 -7 -7 -8 -7 -7 -7 -7 -6 -6 -6 -6 -7 -7 -7 -7 -7 -7 -8 -8 -8 -8 -9 -8 -8 -8 -8 -8
-9 -10 -9 -8 -8 -8 -9 -8 -7 -6 -4 -5 -6 -6 -7 -7 -7 -7 -7 -7 -7 -8 -7 -7 -7 -6 -6 -6 -7 -7 -7 -8 -7 -7 -7 -8 -8 -8 -8 -9 -9 -8 -9 -9
-9 -10 -10 -9 -6 -8 -9 -8 -8 -6 -4 -6 -6 -6 -7 -7 -8 -8 -6 -7 -8 -7 -7 -7 -7 -7 -6 -6 -7 -7 -7 -8 -8 -7 -7 -8 -8 -8 -8 -9 -9 -8 -9 -9
-10 -10 -10 -5 -7 -8 -9 -9 -8 -8 -7 -6 -6 -6 -6 -7 -7 -8 -8 -7 -7 -8 -8 -8 -7 -8 -7 -6 -6 -7 -8 -7 -8 -8 -8 -8 -8 -8 -8 -8 -9 -8 -9 -9
-11 -11 -9 -8 -7 -8 -9 -8 -9 -9 -9 -7 -7 -7 -7 -6 -7 -7 -5 -6 -6 -8 -9 -9 -9 -8 -7 -7 -6 -6 -7 -8 -8 -8 -8 -8 -8 -8 -8 -9 -9 -9 -9 -9
-12 -12 -9 -7 -9 -9 -9 -9 -9 -8 -8 -8 -6 -6 -5 -7 -6 -7 -8 -7 -6 -8 -8 -9 -8 -8 -8 -7 -7 -7 -7 -8 -8 -8 -8 -8 -8 -8 -9 -9 -9 -10 -9 -9
-13 -11 -10 -9 -10 -10 -10 -9 -9 -8 -8 -7 -7 -6 -6 -6 -7 -7 -7 -8 -8 -8 -8 -7 -9 -8 -6 -7 -7 -7 -8 -8 -8 -8 -8 -8 -9 -9 -9 -8 -9 -9 -9 -9
-13 -13 -12 -11 -10 -10 -9 -9 -9 -8 -8 -8 -8 -7 -7 -7 -7 -7 -7 -7 -8 -8 -9 -9 -8 -7 -8 -7 -7 -8 -8 -8 -8 -8 -9 -8 -9 -9 -9 -9 -9 -9 -9 -10
-12 -13 -13 -12 -11 -10 -10 -10 -8 -8 -7 -8 -8 -8 -7 -7 -7 -8 -8 -7 -7 -7 -8 -9 -9 -8 -8 -7 -7 -8 -8 -8 -8 -8 -9 -9 -9 -9 -9 -9 -10 -9 -10 -10
-11 -13 -11 -11 -10 -10 -10 -9 -10 -9 -8 -9 -8 -8 -8 -8 -7 -7 -8 -8 -8 -8 -8 -8 -9 -9 -8 -8 -8 -8 -8 -8 -8 -9 -9 -9 -9 -9 -9 -9 -9 -10 -10 -10
-12 -12 -11 -10 -9 -10 -10 -10 -11 -10 -10 -9 -9 -8 -8 -8 -8 -9 -9 -9 -9 -9 -9 -9 -9 -9 -9 -9 -8 -8 -8 -8 -9 -10 -9 -9 -9 -9 -9 -10 -10 -10 -10 -10
-12 -11 -10 -10 -11 -9 -11 -11 -10 -10 -9 -10 -8 -8 -9 -9 -9 -9 -10 -9 -9 -9 -10 -9 -10 -10 -9 -9 -9 -9 -8 -9 -9 -9 -9 -9 -9 -10 -10 -10 -10 -10 -10 -10
-12 -11 -10 -9 -10 -11 -10 -10 -10 -9 -9 -8 -9 -9 -9 -10 -9 -9 -9 -1 -10 -10 -10 -10 -10 -10 -10 -9 -9 -8 -9 -9 -9 -9 -9 -10 -10 -10 -10 -10 -10 -10 -10 -10
-13 -12 -12 -11 -10 -10 -8 -8 -9 -9 -9 -9 -9 -10 -10 -9 -9 -9 -10 -9 -11 -11 -10 -10 -10 -10 -9 -9 -9 -9 -9 -10 -10 -10 -10 -10 -10 -10 -10 -10 -10 -10 -11 -10
-13 -13 -13 -12 -11 -10 -11 -11 -10 -10 -10 -10 -10 -10 -10 -9 -10 -9 -10 -9 -10 -11 -10 -10 -10 -9 -9 -9 -10 -9 -10 -10 -10 -9 -10 -10 -11 -11 -10 -10 -11 -11 -11 -10
-13 -13 -13 -11 -11 -11 -12 -12 -11 -11 -11 -10 -10 -10 -10 -10 -9 -11 -10 -10 -10 -10 -10 -10 -10 -10 -9 -9 -9 -9 -10 -10 -10 -10 -9 -10 -11 -11 -11 -10 -11 -10 -10 -11
-13 -13 -12 -12 -12 -12 -12 -12 -12 -12 -10 -10 -10 -11 -10 -10 -10 -10 -10 -10 -10 -10 -10 -10 -9 -9 -9 -9 -10 -10 -10 -10 -10 -10 -10 -10 -11 -11 -9 -11 -10 -10 -10 -11
-13 -13 -13 -13 -12 -13 -13 -12 -12 -11 -11 -11 -11 -11 -10 -10 -10 -10 -10 -10 -10 -10 -9 -9 -10 -9 -10 -10 -10 -10 -10 -11 -10 -10 -10 -10 -10 -11 -11 -10 -10 -10 -11 -11
-14 -13 -13 -13 -13 -13 -12 -12 -11 -11 -11 -10 -11 -11 -11 -11 -10 -11 -11 -11 -11 -10 -11 -10 -10 -10 -10 -10 -10 -10 -11 -11 -10 -10 -11 -11 -11 -12 -11 -11 -10 -11 -11 -11
-14 -14 -13 -13 -13 -13 -13 -12 -11 -11 -11 -11 -11 -11 -11 -12 -12 -11 -12 -12 -11 -11 -11 -11 -11 -11 -11 -11 -11 -10 -11 -10 -11 -12 -12 -12 -12 -12 -11 -11 -11 -11 -11 -12
-14 -14 -14 -13 -13 -13 -12 -11 -11 -11 -11 -12 -12 -12 -12 -12 -12 -11 -11 -11 -11 -11 -11 -11 -11 -11 -11 -10 -11 -12 -12 -12 -12 -12 -12 -12 -12 -12 -11 -12 -12 -12 -12 -13
-14 -14 -14 -13 -13 -13 -13 -11 -12 -12 -12 -12 -12 -12 -12 -12 -12 -11 -11 -12 -12 -12 -13 -12 -13 -14 -13 -13 -13 -13 -12 -12 -12 -12 -12 -12 -12 -13 -13 -13 -14 -13 -13 -13
-14 -14 -14 -14 -14 -14 -14 -15 -15 -14 -14 -14 -14 -14 -14 -14 -14 -14 -14 -13 -13 -13 -14 -15 -15 -14 -14 -13 -14 -13 -13 -12 -13 -13 -13 -13 -13 -13 -13 -13 -13 -14 -14 -14
-16 -16 -16 -16 -15 -15 -15 -15 -15 -15 -15 -15 -15 -14 -14 -14 -14 -14 -14 -13 -13 -14 -13 -13 -13 -13 -13 -13 -13 -13 -13 -13 -13 -13 -13 -13 -13 -14 -14 -14 -14 -14 -14 -14
-16 -17 -17 -16 -16 -16 -15 -15 -15 -16 -15 -16 -15 -14 -14 -14 -14 -14 -14 -13 -14 -14 -14 -14 -14 -14 -14 -13 -13 -13 -13 -13 -13 -13 -14 -13 -13 -14 -14 -14 -15 -15 -15 -15
-17 -17 -18 -17 -17 -17 -17 -17 -16 -16 -16 -16 -16 -15 -15 -14 -14 -14 -14 -14 -14 -14 -14 -14 -14 -15 -15 -15 -14 -14 -15 -15 -15 -15 -15 -15 -14 -14 -15 -14 -14 -15 -15 -16
-17 -17 -17 -17 -17 -17 -17 -16 -16 -16 -16 -16 -16 -15 -15 -15 -15 -15 -15 -15 -15 -15 -15 -15 -15 -15 -15 -15 -15 -15 -16 -16 -15 -16 -16 -16 -16 -16 -16 -16 -16 -16 -16 -16
Height
5748 5758 5770 5775 5778 5783 5787 5793 5794 5805 5807 5815 5828 5831 5837 5838 5841 5846 5844 5851 5854 5853 5858 5863 5870 5873 5874 5876 5877 5879 5881 5883 5884 5883 5882 5883 5885 5887 5888 5889 5889 5888 5886 5884
5736 5744 5753 5761 5768 5774 5779 5783 5787 5792 5796 5804 5815 5822 5825 5831 5834 5835 5842 5841 5844 5849 5851 5855 5860 5865 5869 5870 5871 5872 5876 5878 5879 5879 5878 5879 5880 5882 5882 5881 5881 5881 5880 5877
5717 5730 5741 5747 5750 5761 5769 5775 5779 5779 5790 5797 5800 5810 5816 5822 5827 5825 5828 5835 5838 5842 5845 5847 5850 5854 5859 5863 5864 5866 5869 5871 5872 5873 5874 5874 5875 5876 5877 5877 5876 5875 5873 5871
5705 5718 5726 5732 5743 5752 5760 5766 5772 5774 5779 5785 5788 5798 5806 5809 5814 5816 5815 5824 5830 5834 5836 5839 5842 5845 5850 5855 5857 5859 5861 5864 5866 5868 5868 5868 5868 5869 5870 5870 5869 5868 5865 5864
5690 5698 5712 5722 5735 5746 5751 5755 5763 5766 5768 5774 5779 5785 5795 5800 5802 5803 5806 5813 5813 5814 5825 5830 5833 5837 5841 5844 5849 5851 5854 5857 5859 5860 5861 5861 5862 5862 5861 5861 5861 5860 5859 5855
5679 5687 5694 5712 5727 5737 5742 5745 5753 5754 5758 5764 5771 5774 5784 5788 5789 5794 5796 5799 5806 5811 5811 5818 5819 5826 5830 5834 5837 5841 5845 5849 5850 5852 5853 5855 5855 5854 5854 5852 5848 5849 5849 5847
5668 5678 5688 5701 5719 5726 5730 5735 5738 5745 5750 5756 5760 5765 5769 5774 5780 5783 5788 5791 5795 5799 5801 5809 5810 5815 5821 5825 5827 5831 5834 5838 5840 5842 5844 5846 5846 5846 5844 5839 5841 5841 5838 5838
5662 5672 5683 5695 5706 5714 5718 5722 5728 5733 5739 5745 5751 5756 5759 5763 5767 5772 5776 5777 5784 5788 5791 5795 5800 5805 5809 5814 5819 5820 5823 5826 5830 5833 5835 5837 5838 5834 5834 5836 5833 5831 5831 5829
5654 5666 5676 5686 5698 5703 5705 5714 5719 5725 5730 5735 5741 5745 5750 5753 5755 5755 5760 5766 5771 5776 5781 5783 5787 5793 5797 5802 5806 5810 5813 5817 5820 5824 5827 5828 5827 5826 5827 5825 5824 5823 5822 5819
5645 5657 5663 5675 5685 5689 5688 5693 5702 5712 5719 5726 5733 5737 5739 5741 5743 5743 5745 5750 5753 5758 5764 5770 5776 5781 5788 5792 5798 5802 5805 5808 5811 5813 5816 5816 5818 5818 5817 5817 5816 5814 5812 5811
5640 5649 5665 5674 5670 5665 5671 5683 5691 5705 5713 5719 5722 5726 5727 5727 5730 5732 5734 5737 5738 5743 5747 5754 5762 5769 5775 5780 5788 5794 5796 5797 5798 5800 5804 5806 5808 5808 5808 5808 5806 5804 5803 5800
5634 5642 5649 5652 5652 5638 5666 5680 5686 5695 5704 5707 5710 5713 5716 5714 5713 5718 5719 5715 5724 5734 5738 5740 5746 5754 5760 5767 5775 5779 5782 5783 5788 5793 5794 5796 5797 5798 5798 5797 5795 5793 5790 5788
5632 5638 5644 5649 5648 5655 5664 5670 5679 5685 5693 5697 5700 5702 5701 5704 5710 5706 5709 5671 5681 5716 5728 5728 5735 5741 5749 5754 5760 5767 5772 5775 5778 5782 5784 5785 5786 5785 5785 5784 5783 5780 5777 5774
5630 5635 5641 5641 5642 5644 5654 5663 5672 5680 5685 5688 5690 5693 5693 5698 5699 5696 5689 5660 5681 5704 5716 5721 5726 5730 5738 5743 5749 5754 5759 5762 5765 5769 5772 5773 5773 5773 5773 5771 5768 5769 5766 5761
5620 5628 5633 5636 5636 5640 5648 5657 5669 5673 5676 5679 5681 5683 5686 5687 5690 5685 5675 5677 5687 5696 5708 5712 5717 5722 5727 5731 5738 5743 5747 5749 5753 5754 5756 5759 5761 5761 5757 5758 5756 5754 5751 5750
5616 5619 5625 5629 5633 5639 5645 5653 5662 5666 5669 5670 5669 5675 5680 5684 5685 5683 5687 5687 5690 5697 5702 5705 5710 5716 5720 5725 5729 5731 5735 5739 5742 5744 5745 5746 5750 5748 5746 5746 5744 5744 5741 5740
5610 5617 5620 5627 5630 5633 5635 5641 5650 5659 5662 5663 5662 5665 5669 5677 5679 5681 5681 5684 5689 5693 5697 5700 5704 5710 5714 5716 5721 5724 5728 5724 5727 5733 5735 5735 5735 5732 5735 5735 5732 5732 5729 5728
5611 5616 5618 5623 5630 5631 5636 5644 5648 5651 5654 5658 5656 5655 5661 5667 5670 5674 5676 5681 5684 5687 5690 5694 5695 5689 5696 5707 5710 5711 5714 5715 5716 5717 5719 5720 5720 5721 5723 5722 5723 5720 5719 5717
5613 5617 5621 5624 5628 5634 5637 5640 5642 5646 5647 5649 5650 5651 5655 5659 5662 5665 5668 5673 5677 5679 5683 5685 5689 5692 5693 5694 5696 5700 5703 5702 5704 5705 5705 5706 5706 5709 5710 5712 5711 5710 5708 5704
5613 5617 5621 5624 5629 5632 5632 5633 5636 5638 5638 5641 5645 5647 5648 5650 5653 5657 5661 5664 5668 5665 5673 5676 5681 5682 5686 5685 5685 5687 5692 5691 5689 5690 5692 5694 5694 5696 5697 5698 5699 5697 5693 5692
5615 5617 5621 5624 5626 5628 5629 5630 5632 5635 5635 5634 5638 5640 5642 5644 5648 5650 5652 5656 5659 5662 5664 5664 5665 5669 5671 5669 5670 5670 5675 5679 5682 5680 5682 5683 5685 5687 5687 5685 5685 5682 5682 5681
5615 5617 5619 5621 5622 5624 5626 5627 5628 5629 5631 5632 5633 5635 5637 5639 5641 5642 5645 5646 5648 5649 5651 5652 5652 5655 5657 5659 5659 5663 5666 5667 5670 5671 5672 5672 5674 5674 5674 5673 5671 5670 5671 5671
5613 5615 5617 5619 5620 5621 5622 5623 5625 5627 5628 5629 5629 5631 5631 5632 5635 5638 5640 5641 5643 5645 5645 5646 5648 5650 5652 5652 5651 5651 5654 5656 5659 5661 5660 5660 5660 5661 5662 5660 5658 5659 5658 5659
5614 5616 5617 5617 5617 5618 5619 5620 5622 5623 5624 5625 5626 5629 5630 5630 5630 5632 5632 5634 5636 5637 5638 5639 5639 5640 5641 5642 5643 5644 5646 5647 5647 5647 5647 5648 5647 5647 5647 5648 5648 5648 5648 5650
5616 5615 5616 5616 5617 5617 5618 5619 5621 5621 5622 5622 5623 5624 5625 5626 5628 5627 5626 5626 5626 5627 5628 5629 5630 5630 5631 5632 5633 5633 5633 5634 5635 5635 5635 5635 5636 5636 5637 5636 5635 5635 5636 5637
5616 5616 5616 5614 5613 5614 5614 5614 5615 5617 5617 5617 5618 5617 5618 5618 5620 5621 5620 5619 5619 5617 5618 5619 5619 5619 5621 5621 5621 5622 5623 5623 5624 5624 5625 5625 5625 5625 5626 5625 5626 5627 5626 5625
5613 5615 5613 5612 5612 5612 5611 5610 5611 5613 5612 5612 5611 5612 5611 5611 5611 5609 5608 5608 5607 5607 5608 5610 5610 5610 5610 5609 5609 5610 5611 5610 5610 5611 5611 5610 5609 5610 5611 5612 5612 5612 5613 5614
Wind_Speed
57 49 46 49 47 41 42 43 45 38 44 42 45 49 42 37 29 28 36 34 35 38 38 39 31 31 21 21 23 22 20 15 14 11 11 13 10 8 8 7 10 15 18 21
57 55 47 49 51 43 40 39 42 39 42 41 45 46 32 24 35 40 31 43 46 39 43 43 37 35 37 32 24 23 23 19 16 13 12 13 14 13 16 18 20 21 21 21
67 59 52 51 57 51 42 38 35 44 39 34 45 52 45 32 30 38 36 33 28 46 46 47 42 40 36 33 27 24 25 22 18 16 16 15 15 12 12 13 15 19 23 24
66 62 59 60 53 50 44 41 40 39 35 35 38 49 58 49 44 46 47 48 43 37 43 47 43 44 40 36 31 28 30 27 23 17 20 19 15 13 14 15 17 21 25 28
61 67 66 61 52 48 46 48 44 42 42 40 34 37 61 67 55 53 63 50 49 50 39 39 39 39 40 42 36 35 34 32 27 21 20 25 21 22 23 20 22 24 27 32
48 62 71 63 53 44 50 53 49 49 50 46 43 43 39 63 69 59 53 56 58 46 36 44 46 38 40 42 38 39 33 33 31 26 23 22 26 28 24 27 34 24 30 35
50 59 64 60 51 43 46 53 48 50 49 46 47 44 45 45 63 70 71 62 53 51 52 53 36 44 45 41 42 34 35 37 35 32 27 24 24 24 29 30 26 34 37 39
41 47 54 52 51 52 53 52 56 56 48 44 42 43 43 39 38 47 76 74 70 57 51 49 52 49 37 36 37 38 37 41 41 34 30 23 22 31 27 32 35 37 42 44
46 46 47 45 47 54 58 52 56 49 50 45 49 42 41 37 37 39 46 52 74 72 67 59 51 51 53 41 40 37 37 40 37 33 30 27 30 31 30 36 39 42 48 46
57 54 57 54 50 60 66 64 57 44 42 46 40 40 41 41 41 45 51 51 52 50 74 67 61 51 51 43 40 42 39 39 36 36 33 34 33 34 37 39 44 45 45 50
56 57 53 46 60 66 64 48 49 46 41 41 41 42 43 46 47 48 51 55 57 54 54 53 48 59 56 50 44 44 40 43 42 42 37 37 37 38 42 44 46 47 51 54
57 56 54 45 46 34 40 42 34 34 40 36 40 40 47 51 51 47 50 53 60 58 55 58 46 48 56 60 55 49 46 42 39 38 37 38 40 43 44 48 46 51 52 52
65 56 58 58 62 56 59 52 47 43 39 40 41 46 45 41 41 48 60 40 54 58 53 59 49 48 46 44 48 48 45 41 39 40 42 44 45 45 49 49 52 53 51 52
62 67 63 62 63 61 53 55 46 34 37 43 45 41 40 39 39 45 52 27 37 45 45 44 43 44 43 47 53 46 48 45 44 44 46 47 49 49 53 55 56 57 55 54
44 53 52 45 38 43 48 52 44 38 39 37 39 34 35 36 35 39 22 12 26 28 36 37 41 40 45 52 42 47 54 50 52 53 48 46 48 48 57 58 63 52 48 47
34 35 57 41 38 46 35 43 49 35 32 35 40 37 36 29 31 23 18 17 22 28 32 35 40 44 46 43 46 52 55 55 55 52 54 53 49 47 45 44 43 43 42 40
13 15 31 43 28 34 37 35 43 32 33 33 37 39 38 30 22 22 21 27 26 29 30 30 35 40 49 44 46 50 55 38 45 47 44 50 50 46 47 49 43 43 43 38
19 11 15 17 17 15 17 25 27 29 29 31 34 32 34 33 21 28 30 29 31 33 33 36 36 30 37 40 40 45 45 40 42 49 45 47 55 52 48 42 40 42 41 40
7 13 12 13 7 14 18 20 21 25 22 27 22 23 23 31 33 29 32 34 39 41 42 40 41 42 42 42 42 42 43 44 47 49 58 58 47 34 40 41 39 40 40 35
14 7 10 11 15 8 9 8 14 17 24 28 32 38 34 24 30 31 32 33 46 43 47 45 49 45 49 54 49 50 40 52 38 30 26 27 29 37 36 37 37 35 33 34
10 11 9 9 12 13 9 12 10 15 14 16 24 26 24 22 22 33 41 39 40 37 33 38 42 43 59 49 36 18 29 32 28 25 29 32 35 37 37 36 35 29 34 29
5 9 11 12 13 13 12 10 13 15 17 17 18 25 27 30 29 24 27 29 26 24 26 37 24 22 22 24 22 27 31 30 34 36 36 38 38 32 39 38 30 31 31 30
19 18 15 16 16 14 12 12 12 13 12 11 12 15 18 19 17 18 19 19 19 20 19 22 22 25 29 29 27 30 31 34 37 36 37 38 37 36 36 34 33 33 34 34
5 8 8 10 14 15 12 13 12 12 12 11 11 15 18 17 18 20 23 26 26 26 26 26 26 27 28 30 33 35 37 36 37 37 39 37 36 34 33 34 35 36 36 35
6 5 4 3 2 6 8 11 12 13 15 14 16 17 20 24 26 26 28 31 31 30 30 29 28 29 31 35 38 40 41 40 39 38 37 37 38 36 34 36 37 37 37 39
3 4 2 3 5 7 9 10 11 11 14 17 19 22 22 24 24 24 27 29 29 31 33 31 31 32 32 34 36 37 35 36 34 36 35 36 36 36 35 38 37 36 37 38
12 10 12 14 15 15 15 19 19 18 19 22 24 25 25 26 26 28 29 32 33 33 34 33 33 35 36 37 38 38 37 39 38 36 36 36 38 38 39 36 36 38 37 35
Wind_Direction
240 235 220 227 224 236 235 238 237 239 242 240 209 218 231 250 257 255 273 215 230 240 241 245 254 263 247 258 261 259 267 276 246 211 195 201 196 205 213 242 265 293 304 315
234 233 228 218 220 220 241 243 243 241 235 237 227 217 221 242 257 262 240 221 219 231 243 246 257 267 264 264 262 256 255 267 252 231 219 211 214 221 258 278 282 295 309 319
227 224 225 213 221 214 214 237 248 241 235 242 233 213 219 220 234 252 254 239 222 230 237 247 257 267 266 262 263 259 255 252 261 253 234 225 222 242 257 272 293 305 306 312
221 219 217 228 219 215 212 220 235 251 249 244 241 221 213 219 225 228 236 243 234 227 236 246 254 258 264 266 260 257 252 251 258 257 242 232 237 241 268 281 294 306 309 312
217 221 219 225 224 213 208 218 216 225 233 238 236 224 214 220 223 238 237 246 232 221 230 240 252 256 260 262 262 258 247 245 252 259 248 237 249 264 271 282 291 298 303 313
208 222 222 226 220 217 217 226 220 223 230 237 243 244 237 218 225 227 237 245 235 232 229 228 237 243 246 245 259 258 245 242 249 248 256 247 247 257 270 277 271 300 299 303
212 218 222 221 217 210 215 225 227 229 234 239 240 247 252 242 225 228 230 233 237 243 246 245 237 244 248 251 250 248 237 239 243 247 255 251 257 265 265 269 296 297 298 297
203 222 223 216 209 211 216 221 228 234 231 236 245 249 253 249 249 236 229 234 232 233 241 240 246 247 246 239 243 237 234 238 242 249 254 261 268 261 271 278 289 295 287 291
194 208 214 214 213 215 218 226 230 227 239 233 243 246 247 249 250 251 240 238 240 234 235 232 231 239 243 249 251 237 241 239 241 248 258 263 259 266 274 288 288 291 293 301
197 201 208 209 210 212 222 227 220 228 221 227 234 241 244 247 252 250 246 247 249 243 234 238 240 225 235 238 238 237 237 243 243 243 251 259 266 270 279 278 282 290 293 291
198 197 204 214 223 222 220 235 224 225 215 226 229 237 244 251 251 253 252 249 246 238 234 228 233 240 235 233 239 235 236 238 237 241 250 259 264 267 273 276 281 289 286 289
193 190 200 209 214 215 209 219 231 226 226 229 237 243 244 250 255 250 246 239 237 231 231 228 226 237 241 244 241 232 234 233 240 246 252 256 260 263 268 275 274 282 285 291
197 197 205 223 232 226 229 231 232 234 237 239 244 251 254 262 267 256 254 223 215 231 234 231 228 234 235 234 229 229 231 233 239 246 251 255 255 257 267 269 272 277 285 296
217 210 220 227 231 236 240 244 239 235 241 244 246 252 266 273 269 273 269 208 205 222 230 231 229 225 232 231 223 225 233 236 240 246 249 252 256 259 268 266 272 277 285 299
219 218 222 222 245 217 224 234 232 228 238 238 245 258 264 265 256 273 237 170 203 212 218 220 220 226 226 229 225 228 233 236 240 241 244 248 253 267 269 273 274 277 291 292
214 229 221 219 229 239 247 236 229 236 239 247 250 252 253 262 258 259 268 231 216 220 216 215 223 227 227 231 231 236 237 238 244 240 249 254 263 266 275 283 292 289 286 290
141 199 193 211 232 238 229 209 214 237 238 244 254 255 262 250 244 229 215 214 223 222 228 231 235 230 232 235 240 240 246 245 247 257 266 264 277 268 270 278 286 288 287 290
155 150 158 184 211 194 189 210 230 240 249 249 258 258 255 254 251 236 232 230 231 236 237 237 233 231 227 238 250 253 256 265 272 270 267 273 276 271 272 279 285 283 284 283
181 195 177 164 183 212 227 238 226 237 246 254 267 256 268 259 247 256 243 243 243 243 239 233 236 244 247 252 252 257 257 266 270 269 265 260 260 277 279 279 278 278 279 282
162 167 194 202 215 222 228 241 236 255 250 250 240 256 267 261 259 248 243 249 241 241 242 246 244 235 250 252 254 259 263 263 252 250 271 276 269 276 272 273 275 281 286 289
198 224 222 224 228 241 254 242 227 237 248 239 240 236 239 244 244 243 243 244 247 251 243 251 255 259 253 245 239 239 263 266 263 260 269 266 269 267 270 275 275 278 282 285
222 234 246 241 253 257 271 263 248 260 251 244 244 240 244 250 256 250 253 257 264 260 264 253 241 246 257 256 261 264 271 275 272 271 271 272 270 266 262 275 275 276 276 274
232 231 234 235 234 239 238 223 217 235 246 258 251 254 249 236 227 236 246 253 255 257 261 268 268 263 259 254 248 260 263 264 265 268 267 266 270 268 267 270 275 271 274 276
152 171 197 212 218 209 204 213 210 217 223 236 246 252 257 260 258 260 262 261 263 262 261 261 263 266 267 268 268 266 265 264 265 263 265 267 269 270 271 272 274 274 274 273
18 57 33 7 318 262 242 250 254 248 248 237 246 252 256 257 256 260 263 265 265 264 263 262 260 258 259 259 260 261 263 265 265 267 269 271 273 273 275 273 271 272 273 274
340 326 318 295 280 271 281 279 265 251 255 258 254 253 252 260 262 260 258 257 259 261 260 261 264 266 266 265 263 265 268 271 272 271 270 270 271 272 271 272 274 275 274 272
305 301 295 288 281 279 283 273 268 269 272 270 266 264 265 264 264 263 261 260 260 261 261 264 264 263 263 263 264 267 269 269 268 266 267 270 273 273 273 272 272 273 271 267